Vicksburg, LA

3:46 AM CDT on July 26, 2017 (GMT -0500)
Vicksburg Tallulah Regional

Weather History for KTVR - December, 2012

Change the Weather History Date:

Wednesday, December 26, 2012

  Actual Average Record
Temperature  
Mean Temperature 36 °F 46 °F  
Max Temperature 39 °F 57 °F 82 °F (2015)
Min Temperature 32 °F 36 °F 5 °F (1983)
Degree Days  
Heating Degree Days 29 19  
Month to date heating degree days 261 439  
Since 1 July heating degree days 819 841  
Cooling Degree Days 0 0  
Month to date cooling degree days 10 0  
Year to date cooling degree days 2407 2225  
Moisture  
Dew Point 30 °F    
Average Humidity 76    
Maximum Humidity 82    
Minimum Humidity 70    
Precipitation  
Precipitation 0.00 in 0.17 in 2.44 in (1982)
Month to date precipitation 7.88 4.89  
Year to date precipitation 54.24 54.02  
Sea Level Pressure  
Sea Level Pressure 30.10 in    
Wind  
Wind Speed 11 mph (NW)    
Max Wind Speed 23 mph    
Max Gust Speed 31 mph    
Visibility 10 miles    
Events      
T = Trace of Precipitation, MM = Missing Value Source: NWS Daily Summary

Daily Weather History Graph

Daily Weather History Graph

Search for Another Location

Airport or City:

Trip Planner

Search our weather history database for the weather conditions in past years. The results will help you decide how hot, cold, wet, or windy it might be!

Date:

Astronomy

Dec. 26, 2012 Rise Set
Actual Time 7:03 AM CST 5:06 PM CST
Civil Twilight 6:36 AM CST 5:33 PM CST
Nautical Twilight 6:06 AM CST 6:04 PM CST
Astronomical Twilight 5:36 AM CST 6:33 PM CST
Moon 3:58 PM CST 5:29 AM CST
Length of Visible Light 10h 56m
Length of Day
10h 02m
Waxing Gibbous, 97% of the Moon is Illuminated
Dec 26
Waxing Gibbous
Dec 28
Full
Jan 4
Last Quarter
Jan 11
New
Jan 18
First Quarter

Hourly Weather History & Observations

Time (CST) Temp. Windchill Dew Point Humidity Pressure Visibility Wind Dir Wind Speed Gust Speed Precip Events Conditions
12:53 AM 37.0 °F 28.1 °F 30.9 °F 79% 29.84 in 10.0 mi WNW 15.0 mph 26.5 mph N/A   Overcast
1:53 AM 37.0 °F 26.4 °F 30.9 °F 79% 29.87 in 10.0 mi WNW 20.7 mph 27.6 mph N/A   Overcast
2:53 AM 37.0 °F 27.0 °F 30.9 °F 79% 29.90 in 10.0 mi WNW 18.4 mph 27.6 mph N/A   Overcast
3:53 AM 37.0 °F 28.1 °F 30.0 °F 76% 29.93 in 10.0 mi NW 15.0 mph 24.2 mph N/A   Overcast
4:53 AM 37.0 °F 27.0 °F 30.0 °F 76% 29.96 in 10.0 mi NW 18.4 mph 27.6 mph N/A   Overcast
5:53 AM 37.9 °F 30.5 °F 30.0 °F 73% 29.99 in 10.0 mi NW 11.5 mph 20.7 mph N/A   Overcast
6:33 AM 37.4 °F 29.8 °F 30.2 °F 75% 29.99 in 10.0 mi NW 11.5 mph 20.7 mph N/A   Overcast
6:53 AM 37.0 °F 28.9 °F 32.0 °F 82% 30.04 in 10.0 mi NW 12.7 mph 21.9 mph N/A   Overcast
7:53 AM 37.0 °F 29.3 °F 30.9 °F 79% 30.08 in 10.0 mi NW 11.5 mph 23.0 mph N/A   Overcast
8:53 AM 37.0 °F 28.5 °F 30.9 °F 79% 30.11 in 10.0 mi NW 13.8 mph 23.0 mph N/A   Overcast
9:53 AM 37.9 °F 29.2 °F 30.9 °F 76% 30.14 in 10.0 mi NW 15.0 mph 20.7 mph N/A   Overcast
10:53 AM 37.0 °F 29.8 °F 32.0 °F 82% 30.15 in 9.0 mi WNW 10.4 mph - N/A   Overcast
11:53 AM 37.9 °F 30.5 °F 30.0 °F 73% 30.15 in 10.0 mi NW 11.5 mph - N/A   Overcast
12:53 PM 37.9 °F 32.1 °F 30.9 °F 76% 30.15 in 10.0 mi WNW 8.1 mph - N/A   Overcast
1:53 PM 37.9 °F 31.5 °F 30.9 °F 76% 30.16 in 10.0 mi WNW 9.2 mph - N/A   Overcast
2:53 PM 37.9 °F 31.5 °F 30.0 °F 73% 30.16 in 10.0 mi WNW 9.2 mph 17.3 mph N/A   Overcast
3:53 PM 37.0 °F 30.4 °F 30.9 °F 79% 30.18 in 10.0 mi WNW 9.2 mph - N/A   Overcast
4:53 PM 37.0 °F 31.0 °F 30.0 °F 76% 30.19 in 10.0 mi NW 8.1 mph 19.6 mph N/A   Overcast
5:53 PM 37.0 °F 33.3 °F 28.9 °F 73% 30.20 in 10.0 mi NNW 4.6 mph - N/A   Overcast
7:53 PM 37.0 °F - 28.9 °F 73% 30.23 in 10.0 mi Calm Calm - N/A   Overcast
8:53 PM 37.0 °F 31.0 °F 30.0 °F 76% 30.24 in 10.0 mi North 8.1 mph - N/A   Overcast
9:53 PM 35.1 °F 27.9 °F 28.0 °F 76% 30.23 in 10.0 mi NNE 9.2 mph - N/A   Scattered Clouds
10:53 PM 33.1 °F 26.9 °F 28.0 °F 82% 30.23 in 10.0 mi NNE 6.9 mph - N/A   Clear
11:53 PM 33.1 °F 28.7 °F 28.0 °F 82% 30.22 in 10.0 mi NE 4.6 mph - N/A   Clear